Showing default

GALILEO 19 (2C5), 43055

Orbit data source: Space-Track

GALILEO 19 (2C5), 43055 is a payload satellite owned by GNSS Agency (ESA) that was launched on Tue, 12 Dec 2017 UTC via an ARIANE 5ES launch vehicle from the French Guiana (FRGUI). Payload-class satellites include a variety of spacecraft equipped with specific instruments for various scientific and technological missions. These include communications satellites like Starlink; space stations such as the ISS; scientific satellites like the Hubble; Earth observation satellites from companies like Planet Labs, Umbra, and HawkEye 360; GPS; miniature CubeSats for education and research; and military/defense satellites.

Loading next visibility...
Identifier
43055, 2017-079A
Orbit
Active
Country
Flag of ESAESA
Related business
Manufacturer
OHB
Mission
Operational Civil Navigation
Bus & Motor
GALILEOSAT, AOCS
Mass
715 kg wet, 700 kg dry
Launch date (UTC)
2017-12-12 (9 years ago)
Launch vehicle
ARIANE 5ES
Launch site
French Guiana (FRGUI)
Object type
Payload
Rocket body
Debris
Shape & HBR
Box + 2 Pan, 7.3 m
Radar Cross Section
9.223 m², Large (>1 m²)

Expand to show TLE details & history
Last TLE update: 4 days ago

TLE from 4 days ago
0 GALILEO 19 (2C5)
1 43055U 17079A   26169.77531633  .00000028  00000-0  00000-0 0  9990
2 43055  55.0730 221.4630 0003228 264.0800  95.9660  1.70474593 53016
Epoch: 2026-06-18T18:36Z
TLE epoch observation values (Epoch: 2026-06-18T18:36:27.330Z)
Latitude
-0.00004°
Longitude
35.34965°
Altitude
23,223.373 km
Speed
3.67 km/s
True Right ascension
14h 45m 54s
True Declination
0° 00' 00"
Sunlit
Object was in daylight at epoch
Visualization orbit readout
Latitude
Unknown
Longitude
Unknown
Altitude
Unknown
Speed
Unknown
Apparent Right ascension
Unknown
Apparent Declination
Unknown
Sunlit
N/A
Visualization observer readout
Local Sidereal Time
21:42:19
Azimuth
Unknown
Elevation
Unknown
Doppler factor
Unknown
Orbital elements
Apogee altitude
23,231.675 km
Perigee altitude
23,212.565 km
Semi-major axis
29,600.257 km
Eccentricity
0.00032
Inclination
55.073°
RAAN
221.463°
Arg. of periapsis
264.08°
True anomaly
96.00279°
Mean anomaly
95.966°
Eccentric anomaly
95.98439°
Mean motion
0.42619 °/min
Orbital period
844.7 mins
BSTAR
0
Loading maneuver chart data...
Computing Atmospheric mass density...
Loading historical data...
Loading historical data...
Loading historical data...
Loading historical data...
Loading historical data...
Loading historical data...
Loading historical data...
Other satellites on launch #79 in the year 2017 (2017-12-12 UTC)

Documentation

Showing up to 5 results
|